7 * 24
多渠道服务支持
IRIDIUM 113(铱星113)是美国于2017年6月25日发射的商业通信卫星,隶属于第二代铱星卫星星座。该星座旨在为全球提供稳定的卫星语音通信与数据传输服务,补充完善全球覆盖的低轨通信网络,支持海上、空中及偏远地区的通信需求。铱星系统作为全球首个实现全域覆盖的卫星通信网络,IRIDIUM 113的入轨进一步提升了星座服务可靠性,为全球用户提供全天候无缝连接的通信保障。
美国
(US)
| 数据来源 | 国际轨道数据 |
| 星历时间: | 2026-03-13T15:24:28+0800 1天前 查看轨道信息 |
| 半长轴: | 7155.834km |
| 偏心率: | 0.000228 |
| 轨道倾角: | 86.403° |
| 近地点辐角 | 78.977° |
| 升交点赤经 | 2.240° |
| 平近点角 | 281.168° |
| 近地点: | 776.065km |
| 远地点: | 779.329km |
| 周期: | 100.404分钟 |
| 每日圈数: | 14.34209 |